P/2012 G1 ( PanSTARRS )

Japanese version
Home page
Updated on August 13, 2012

---------------------------------------------------------------------

* Profile

Discovery Date April 13, 2012
Magnitude 21.1 mag
Discoverer Pan-STARRS 1 telescope (Haleakala)

* Pictures

* Orbital Elements

T 2012 June 1.43253 TT                                  MPC
q   2.5841656            (2000.0)            P               Q
n   0.11562497     Peri.  286.11485     -0.85803133     +0.47397143
a   4.1728711      Node   282.54401     -0.35860043     -0.82860500
e   0.3807224      Incl.   11.69249     -0.36767917     -0.29793428
P   8.52
From 16 observations 2012 Apr. 13-16.

* Magnitudes Graph

        m1 = 15.0 + 5 log d + 10.0 log r

---------------------------------------------------------------------

The orbital elements are published on M.P.E.C. 2012-H17.
The magnitudes graphs are made with Comet for Windows.

---------------------------------------------------------------------

Copyright(C) Seiichi Yoshida (comet@aerith.net). All rights reserved.